Weather History for Meknes, Morocco

Change the Weather History Date:

Tuesday, February 18, 2014

  Actual Average Record
Temperature  
Mean Temperature 47 °F -  
Max Temperature 52 °F - - ()
Min Temperature 42 °F - - ()
Degree Days  
Heating Degree Days 18    
Moisture  
Dew Point 43 °F    
Average Humidity 86    
Maximum Humidity 100    
Minimum Humidity 59    
Precipitation  
Precipitation 0.04 in - - ()
Sea Level Pressure  
Sea Level Pressure 30.01 in    
Wind  
Wind Speed 5 mph ()    
Max Wind Speed 12 mph    
Max Gust Speed -    
Visibility 3.5 miles    
Events Rain    
T = Trace of Precipitation, MM = Missing Value Source: Averaged Metar Reports

Daily Weather History Graph

Daily Weather History Graph

Search for Another Location

Airport:

Trip Planner

Search our weather history database for the weather conditions in past years. The results will help you decide how hot, cold, wet, or windy it might be!

Date:

Astronomy

Feb. 18, 2014 Rise Set
Actual Time 7:03 AM WET 6:08 PM WET
Civil Twilight 6:38 AM WET 6:34 PM WET
Nautical Twilight 6:09 AM WET 7:03 PM WET
Astronomical Twilight 5:40 AM WET 7:32 PM WET
Moon 9:35 PM WET (2/18) 8:39 AM WET (2/18)
Length of Visible Light 11h 55m
Length of Day
11h 05m
Waning Gibbous, 89% of the Moon is Illuminated
Feb 18
Waning Gibbous
Feb 22
Last Quarter
Mar 1
New
Mar 8
First Quarter
Mar 16
Full

Hourly Weather History & Observations

Time (WET) Temp. Windchill Dew Point Humidity Pressure Visibility Wind Dir Wind Speed Gust Speed Precip Events Conditions
12:00 AM 45 °F - 42 °F 87% 29.91 in 3 mi WNW 3.5 mph - -   Overcast
12:00 AM 44.6 °F 43.1 °F 42.8 °F 93% 29.89 in 3.1 mi West 3.5 mph - N/A   Mostly Cloudy
1:00 AM 42.8 °F 41.1 °F 42.8 °F 100% 29.89 in 3.1 mi West 3.5 mph - N/A   Mostly Cloudy
2:00 AM 44.6 °F 43.1 °F 42.8 °F 93% 29.89 in 3.1 mi West 3.5 mph - N/A   Mostly Cloudy
3:00 AM 45 °F - 43 °F 89% 29.93 in 3 mi WSW 4.6 mph - -   Overcast
3:00 AM 44.6 °F 42.2 °F 42.8 °F 93% 29.92 in 3.1 mi WSW 4.6 mph - N/A   Mostly Cloudy
4:00 AM 44.6 °F 43.1 °F 42.8 °F 93% 29.89 in 3.1 mi WSW 3.5 mph - N/A Rain Light Rain
5:00 AM 44.6 °F 42.2 °F 41.0 °F 87% 29.92 in 3.1 mi SW 4.6 mph - N/A   Mostly Cloudy
6:00 AM 43 °F - 41 °F 88% 29.98 in 3 mi SSW 5.8 mph - - Rain Light Rain
6:00 AM 42.8 °F 38.6 °F 41.0 °F 93% 29.95 in 3.1 mi SSW 6.9 mph - N/A Rain Light Rain
7:00 AM 42.8 °F 40.1 °F 41.0 °F 93% 29.95 in 3.1 mi South 4.6 mph - N/A Rain Rain
8:00 AM 44.6 °F 42.2 °F 41.0 °F 87% 29.98 in 3.1 mi South 4.6 mph - N/A   Mostly Cloudy
9:00 AM 45 °F - 40 °F 77% 30.04 in 3 mi SSW 4.6 mph - -   Overcast
9:00 AM 44.6 °F 42.2 °F 41.0 °F 87% 30.01 in 3.1 mi SSW 4.6 mph - N/A   Mostly Cloudy
10:00 AM 46.4 °F 42.9 °F 41.0 °F 81% 30.04 in 3.7 mi SSW 6.9 mph - N/A   Mostly Cloudy
11:00 AM 48.2 °F - 41.0 °F 76% 30.04 in 3.7 mi SW 6.9 mph - N/A   Mostly Cloudy
12:00 PM 51 °F - 41 °F 59% 30.05 in 5 mi SW 8.1 mph - -   Overcast
12:00 PM 51.8 °F - 41.0 °F 67% 30.04 in 5.0 mi SW 8.1 mph - N/A   Mostly Cloudy
1:00 PM 51.8 °F - 41.0 °F 67% 30.04 in 5.0 mi WSW 9.2 mph - N/A   Mostly Cloudy
2:00 PM 50.0 °F - 41.0 °F 71% 30.04 in 5.0 mi West 9.2 mph - N/A   Mostly Cloudy
3:00 PM 49 °F - 44 °F 79% 30.05 in 5 mi West 11.5 mph - -   Overcast
3:00 PM 50.0 °F - 44.6 °F 82% 30.04 in 5.0 mi West 11.5 mph - N/A   Mostly Cloudy
4:00 PM 50.0 °F - 44.6 °F 82% 30.04 in 3.7 mi West 9.2 mph - N/A   Mostly Cloudy
5:00 PM 48.2 °F - 44.6 °F 87% 30.04 in 3.7 mi SW 6.9 mph - N/A   Mostly Cloudy
6:00 PM 47 °F - 44 °F 87% 30.08 in 3 mi SW 6.9 mph - - Rain Light Rain
6:00 PM 48.2 °F - 44.6 °F 87% 30.06 in 3.1 mi SW 6.9 mph - N/A Rain Light Rain
7:00 PM 46.4 °F 41.9 °F 44.6 °F 93% 30.06 in 3.1 mi West 9.2 mph - N/A Rain Rain
8:00 PM 46.4 °F 41.9 °F 44.6 °F 93% 30.09 in 3.1 mi WNW 9.2 mph - N/A Rain Light Rain
9:00 PM 46 °F - 44 °F 92% 30.15 in 3 mi WNW 11.5 mph - -   Partly Cloudy
9:00 PM 46.4 °F 41.1 °F 44.6 °F 93% 30.12 in 3.1 mi WNW 11.5 mph - N/A   Mostly Cloudy
10:00 PM 46.4 °F 41.9 °F 44.6 °F 93% 30.15 in 3.1 mi West 9.2 mph - N/A   Mostly Cloudy
11:00 PM 44.6 °F 40.7 °F 41.0 °F 87% 30.15 in 3.7 mi WSW 6.9 mph - N/A   Scattered Clouds